Carlsbad, NM

12:19 PM MDT on May 25, 2017 (GMT -0600)
Cavern City

Weather History for KCNM - December, 2013

Change the Weather History Date:

Wednesday, December 4, 2013

  Actual Average Record
Temperature  
Mean Temperature 68 °F -  
Max Temperature 75 °F 61 °F 81 °F (1958)
Min Temperature 59 °F 30 °F 17 °F (1990)
Cooling Degree Days 4    
Growing Degree Days 18 (Base 50)    
Moisture  
Dew Point 34 °F    
Average Humidity 28    
Maximum Humidity 40    
Minimum Humidity 18    
Precipitation  
Precipitation 0.00 in - - ()
Sea Level Pressure  
Sea Level Pressure 29.60 in    
Wind  
Wind Speed 17 mph (SW)    
Max Wind Speed 25 mph    
Max Gust Speed 39 mph    
Visibility 10 miles    
Events      
Averages and records for this station are not official NWS values.
T = Trace of Precipitation, MM = Missing Value Source: NWS Daily Summary

Daily Weather History Graph

Daily Weather History Graph

Search for Another Location

Airport or City:

Trip Planner

Search our weather history database for the weather conditions in past years. The results will help you decide how hot, cold, wet, or windy it might be!

Date:

Astronomy

Dec. 04, 2013 Rise Set
Actual Time 6:43 AM MST 4:51 PM MST
Civil Twilight 6:16 AM MST 5:18 PM MST
Nautical Twilight 5:45 AM MST 5:48 PM MST
Astronomical Twilight 5:16 AM MST 6:18 PM MST
Moon 8:15 AM MST (12/4) 7:01 PM MST (12/4)
Length of Visible Light 11h 02m
Length of Day
10h 08m
Waxing Crescent, 5% of the Moon is Illuminated
Dec 4
Waxing Crescent
Dec 9
First Quarter
Dec 17
Full
Dec 25
Last Quarter
Jan 1
New

Hourly Weather History & Observations

Time (MST) Temp. Dew Point Humidity Pressure Visibility Wind Dir Wind Speed Gust Speed Precip Events Conditions
12:53 AM 66.9 °F 36.0 °F 32% 29.54 in 10.0 mi WSW 19.6 mph 33.4 mph N/A   Clear
1:53 AM 66.9 °F 37.0 °F 33% 29.55 in 10.0 mi WSW 17.3 mph 26.5 mph N/A   Clear
2:53 AM 64.9 °F 39.0 °F 39% 29.55 in 10.0 mi WSW 25.3 mph 32.2 mph N/A   Clear
3:53 AM 64.9 °F 39.9 °F 40% 29.54 in 10.0 mi SW 20.7 mph 31.1 mph N/A   Clear
4:53 AM 66.0 °F 39.9 °F 38% 29.55 in 10.0 mi South 13.8 mph 19.6 mph N/A   Clear
5:53 AM 66.9 °F 39.9 °F 37% 29.56 in 10.0 mi Variable 3.5 mph - N/A   Partly Cloudy
6:53 AM 66.0 °F 39.9 °F 38% 29.58 in 10.0 mi SE 12.7 mph 19.6 mph N/A   Partly Cloudy
7:53 AM 68.0 °F 39.9 °F 36% 29.61 in 10.0 mi SSE 19.6 mph 26.5 mph N/A   Mostly Cloudy
8:53 AM 71.1 °F 39.9 °F 32% 29.62 in 10.0 mi WSW 17.3 mph 32.2 mph N/A   Mostly Cloudy
9:53 AM 71.1 °F 39.9 °F 32% 29.62 in 10.0 mi SW 19.6 mph 39.1 mph N/A   Scattered Clouds
10:53 AM 73.0 °F 39.0 °F 29% 29.59 in 10.0 mi SW 20.7 mph 32.2 mph N/A   Partly Cloudy
11:53 AM 75.0 °F 39.0 °F 27% 29.56 in 10.0 mi WSW 16.1 mph 38.0 mph N/A   Scattered Clouds
12:53 PM 75.9 °F 37.9 °F 25% 29.54 in 10.0 mi SW 21.9 mph 32.2 mph N/A   Scattered Clouds
1:41 PM 75.9 °F 36.0 °F 23% 29.67 in 2.0 mi WSW 18.4 mph 25.3 mph N/A   Haze
1:50 PM 75.2 °F 35.6 °F 24% 29.68 in 5.0 mi WSW 20.7 mph 28.8 mph N/A   Haze
1:53 PM 73.9 °F 36.0 °F 25% 29.53 in 10.0 mi WSW 19.6 mph 28.8 mph N/A   Partly Cloudy
2:53 PM 75.0 °F 34.0 °F 22% 29.52 in 10.0 mi West 18.4 mph - N/A   Clear
3:53 PM 73.9 °F 33.1 °F 22% 29.55 in 10.0 mi SW 13.8 mph - N/A   Clear
4:53 PM 71.1 °F 27.0 °F 19% 29.57 in 10.0 mi WSW 19.6 mph 25.3 mph N/A   Clear
5:53 PM 69.1 °F 28.9 °F 22% 29.60 in 10.0 mi WSW 12.7 mph 19.6 mph N/A   Clear
6:53 PM 68.0 °F 27.0 °F 21% 29.63 in 10.0 mi WSW 11.5 mph - N/A   Clear
7:53 PM 64.9 °F 27.0 °F 24% 29.64 in 10.0 mi Variable 6.9 mph - N/A   Clear
8:53 PM 63.0 °F 28.0 °F 27% 29.67 in 10.0 mi Calm Calm - N/A   Clear
9:53 PM 66.0 °F 21.0 °F 18% 29.68 in 10.0 mi West 15.0 mph - N/A   Clear
10:53 PM 62.1 °F 21.9 °F 21% 29.69 in 10.0 mi WSW 12.7 mph - N/A   Clear
11:53 PM 59.0 °F 25.0 °F 27% 29.70 in 10.0 mi WSW 8.1 mph - N/A   Clear